Temp
42 47 44 39 39 33 24 27 21 21 20 23 31 34 37 42 46 48 50 49 47 44 42 43 42 42 43 42 42 42 41 40 38 38 38 37 36 37 39 37 36 37 38 39
35 46 46 41 43 38 36 33 29 29 30 35 41 42 44 48 50 49 49 49 48 47 47 45 44 42 43 42 42 42 41 39 40 39 38 36 38 38 38 38 36 36 35 36
30 42 40 27 32 41 40 38 37 29 32 40 41 46 46 47 50 48 48 48 47 46 45 44 42 43 41 41 42 41 41 41 40 39 37 37 39 38 36 36 35 34 34 35
29 35 15 36 49 46 44 47 42 42 41 44 46 49 49 48 47 48 49 48 46 44 43 43 42 42 42 42 42 41 40 40 39 38 36 36 38 36 36 36 35 34 34 35
25 28 37 44 48 44 41 39 48 47 48 49 51 49 45 51 49 48 47 45 45 44 43 42 42 43 42 41 41 41 41 40 39 37 36 35 36 35 36 35 35 34 35 34
28 25 24 37 50 53 49 27 48 50 49 49 48 34 37 48 49 49 49 46 45 45 44 43 42 42 41 39 39 39 40 40 38 37 35 35 36 35 36 36 35 35 33 33
20 19 31 46 52 53 31 32 49 51 49 48 42 42 46 49 49 51 48 47 47 44 42 42 43 42 39 39 38 40 41 41 38 36 34 35 36 36 35 34 33 32 32 32
26 21 21 50 49 39 40 48 51 50 49 48 48 49 50 50 49 50 48 47 47 43 42 42 42 41 40 38 41 41 41 40 37 34 34 36 35 31 33 30 28 29 30 30
32 30 43 50 48 50 51 50 50 50 51 51 50 50 51 49 49 49 48 46 46 44 43 42 43 42 39 39 41 40 39 37 35 34 32 33 33 29 30 28 30 28 29 28
38 44 48 50 52 54 54 53 54 55 52 52 50 51 49 49 48 47 46 45 45 44 43 41 42 43 40 41 41 39 37 36 35 31 30 32 34 33 30 29 29 29 28 27
40 48 50 52 53 54 54 56 56 56 54 52 52 50 49 48 48 47 46 46 45 42 41 41 42 41 41 40 39 37 36 35 32 30 29 31 32 32 32 33 32 29 29 28
33 47 47 50 53 55 54 54 56 54 53 54 53 51 50 47 47 47 45 45 43 42 41 41 41 40 39 40 37 32 32 31 30 28 27 27 26 25 32 33 34 35 33 31
48 55 53 55 57 57 55 56 56 54 54 52 53 51 49 47 46 44 46 45 43 41 40 40 39 38 38 37 35 33 30 32 30 29 29 26 25 25 24 29 33 33 34 33
58 56 51 55 52 58 58 58 56 57 56 54 52 51 47 46 44 45 44 44 43 41 37 37 38 36 36 36 33 31 31 31 28 27 26 28 23 23 22 21 21 24 30 31
56 58 56 57 57 56 58 56 54 52 52 51 51 49 45 43 42 42 42 44 42 38 33 30 34 34 36 34 32 30 29 26 27 27 27 27 24 22 22 21 21 19 24 26
56 56 56 54 55 55 55 54 52 51 50 48 48 47 45 41 36 38 41 41 37 32 33 31 32 32 32 32 31 27 31 29 26 27 26 26 25 24 23 22 22 21 22 23
50 49 50 51 52 52 52 53 52 52 48 49 47 45 41 36 35 36 38 35 33 32 34 33 29 32 29 31 29 25 25 26 26 27 26 26 25 24 23 21 21 21 22 23
55 54 53 52 51 51 51 51 52 50 49 49 45 39 34 34 34 34 35 35 33 30 34 34 33 32 32 33 32 28 27 27 27 26 27 25 24 25 23 22 22 21 20 24
56 56 54 55 52 51 51 50 50 49 44 40 38 36 34 32 32 33 33 29 27 31 33 34 32 32 35 32 32 31 27 27 27 26 26 23 24 24 22 21 20 20 20 20
54 55 54 53 53 51 50 48 45 41 37 36 34 33 30 28 29 29 31 32 33 33 37 34 35 35 35 32 30 30 28 27 26 24 24 23 20 17 20 20 21 18 14 17
52 52 51 50 48 45 40 39 38 37 32 36 36 34 33 29 29 27 31 31 36 36 36 32 34 33 33 30 30 29 27 23 21 21 19 15 14 17 15 12 14 13 11 12
49 48 39 39 40 38 37 38 39 34 32 30 29 30 29 29 28 29 30 33 34 32 33 33 33 30 29 27 30 27 28 27 24 22 18 15 13 10 10 10 10 11 10 8
46 45 43 39 40 42 39 37 34 36 33 31 31 31 33 34 32 31 30 35 34 31 33 32 28 26 24 28 27 26 25 23 21 19 16 13 11 10 11 11 10 9 7 9
47 46 44 46 45 43 39 36 36 35 34 34 33 32 34 32 29 34 34 32 32 32 31 28 26 25 25 26 25 23 21 18 18 16 17 13 10 10 10 8 10 9 8 7
47 46 46 44 43 39 41 41 40 38 37 35 35 33 34 34 33 34 32 31 30 31 28 25 24 23 25 26 24 20 18 18 16 14 13 11 11 9 8 8 7 6 5 6
47 45 45 44 42 41 41 42 36 35 34 33 33 32 32 33 35 32 32 30 31 29 29 24 23 23 23 24 23 24 22 21 18 16 13 13 12 12 9 9 7 6 5 4
45 41 43 41 42 41 39 38 36 36 36 36 36 35 34 33 32 32 31 28 27 32 32 28 25 26 23 24 29 29 27 18 18 19 15 11 11 9 7 7 6 5 4 4
MSLP
1027.20 1027.05 1027.45 1028.55 1029.87 1031.62 1032.95 1033.81 1034.65 1034.16 1033.72 1032.92 1032.22 1031.74 1030.89 1029.94 1029.26 1029.24 1028.80 1029.03 1029.37 1029.74 1030.07 1030.31 1030.48 1030.56 1030.39 1030.10 1029.93 1029.73 1029.54 1029.36 1029.15 1029.07 1029.04 1028.85 1028.37 1027.79 1026.98 1026.54 1026.21 1025.64 1024.83 1024.03
1027.40 1026.88 1026.85 1027.44 1028.11 1029.14 1030.39 1031.29 1031.88 1032.13 1031.32 1030.68 1030.09 1029.83 1029.43 1028.70 1028.44 1028.41 1028.56 1028.90 1029.30 1029.70 1030.08 1030.44 1030.69 1030.57 1030.52 1030.21 1030.17 1029.79 1029.55 1029.43 1029.27 1029.29 1029.23 1029.00 1028.57 1027.95 1027.34 1026.75 1026.29 1025.73 1025.04 1024.36
1027.54 1026.94 1026.86 1026.86 1025.93 1026.74 1027.75 1028.03 1028.73 1029.96 1029.01 1028.97 1028.82 1028.41 1027.93 1027.71 1027.84 1028.15 1028.49 1028.87 1029.41 1029.85 1030.24 1030.59 1030.72 1030.68 1030.60 1030.47 1030.19 1029.90 1029.73 1029.47 1029.39 1029.49 1029.41 1029.09 1028.73 1028.16 1027.60 1026.99 1026.38 1025.85 1025.35 1024.78
1027.93 1027.52 1027.23 1024.73 1023.92 1024.23 1024.97 1025.28 1026.10 1026.49 1026.88 1027.09 1027.15 1026.81 1026.78 1026.92 1027.42 1027.95 1028.39 1029.03 1029.56 1029.99 1030.28 1030.64 1030.71 1030.78 1030.62 1030.49 1030.35 1030.20 1029.93 1029.52 1029.61 1029.71 1029.57 1029.41 1028.97 1028.41 1027.88 1027.32 1026.75 1026.14 1025.62 1025.06
1028.38 1027.94 1025.94 1023.73 1023.11 1023.30 1023.78 1024.18 1023.81 1024.46 1025.02 1025.49 1025.74 1026.41 1026.97 1026.92 1027.27 1027.87 1028.41 1029.09 1029.53 1029.76 1030.33 1030.58 1030.80 1030.81 1030.76 1030.77 1030.56 1030.35 1030.10 1029.75 1029.91 1029.92 1029.78 1029.57 1029.22 1028.73 1028.23 1027.71 1027.18 1026.67 1026.14 1025.49
1028.92 1028.31 1026.18 1023.46 1022.46 1022.42 1022.92 1023.58 1022.71 1022.98 1023.60 1024.28 1025.12 1026.17 1027.14 1027.07 1027.33 1027.81 1028.34 1028.95 1029.31 1029.76 1030.20 1030.59 1030.87 1030.80 1030.95 1030.94 1030.69 1030.48 1030.31 1030.00 1030.01 1030.09 1029.93 1029.83 1029.55 1029.06 1028.64 1028.15 1027.72 1027.27 1026.76 1026.20
1028.97 1028.17 1025.69 1023.16 1022.19 1022.28 1023.42 1023.37 1022.18 1022.34 1023.08 1023.83 1024.81 1025.29 1026.35 1026.75 1027.33 1027.74 1028.30 1028.84 1029.22 1029.73 1030.24 1030.61 1030.74 1030.80 1031.04 1030.97 1030.91 1030.75 1030.44 1030.14 1030.45 1030.41 1030.20 1030.03 1029.79 1029.42 1029.00 1028.66 1028.27 1027.69 1027.23 1026.66
1028.51 1027.95 1025.12 1022.23 1022.18 1022.34 1022.59 1021.93 1022.06 1022.49 1022.98 1023.74 1024.65 1025.41 1025.97 1026.51 1027.21 1027.72 1028.27 1028.77 1029.17 1029.84 1030.24 1030.60 1030.61 1030.86 1031.08 1031.10 1031.09 1030.97 1030.62 1030.55 1030.67 1030.61 1030.44 1030.34 1030.14 1029.89 1029.49 1029.12 1028.69 1028.16 1027.55 1027.07
1025.60 1024.36 1022.27 1021.31 1021.05 1021.17 1021.28 1021.55 1021.87 1022.42 1022.84 1023.43 1024.37 1025.12 1025.65 1026.32 1026.98 1027.62 1028.20 1028.90 1029.32 1029.83 1030.35 1030.59 1030.56 1030.75 1031.12 1031.30 1031.20 1031.14 1030.91 1030.96 1031.00 1031.00 1030.85 1030.62 1030.43 1030.17 1029.78 1029.51 1028.94 1028.52 1028.05 1027.54
1023.29 1021.60 1021.14 1020.74 1020.49 1020.45 1020.84 1021.12 1021.34 1021.85 1022.56 1023.21 1024.06 1024.78 1025.53 1026.18 1026.91 1027.62 1028.36 1029.01 1029.41 1029.95 1030.35 1030.68 1030.68 1030.85 1031.14 1031.21 1031.26 1031.30 1031.31 1031.43 1031.36 1031.46 1031.31 1031.05 1030.63 1030.24 1029.95 1029.58 1029.19 1028.77 1028.42 1028.05
1021.20 1020.25 1019.79 1019.77 1019.74 1019.87 1020.20 1020.62 1021.02 1021.40 1022.09 1022.81 1023.64 1024.53 1025.20 1026.08 1026.83 1027.58 1028.33 1028.96 1029.50 1030.04 1030.41 1030.74 1030.81 1031.04 1031.24 1031.44 1031.58 1031.76 1031.83 1031.94 1031.93 1031.90 1031.61 1031.30 1031.00 1030.52 1030.19 1029.77 1029.36 1029.07 1028.92 1028.61
1019.12 1018.75 1018.76 1018.63 1018.56 1018.93 1019.48 1019.99 1020.48 1021.20 1021.88 1022.38 1023.14 1024.11 1024.86 1025.92 1026.68 1027.51 1028.39 1029.01 1029.63 1030.11 1030.49 1030.84 1031.05 1031.36 1031.60 1031.81 1032.13 1032.36 1032.44 1032.41 1032.26 1032.10 1031.89 1031.60 1031.23 1030.82 1030.42 1029.99 1029.53 1029.14 1029.27 1028.93
1017.23 1017.18 1017.45 1017.51 1017.70 1018.01 1018.74 1019.33 1019.87 1020.54 1021.31 1022.27 1022.85 1023.65 1024.70 1025.90 1026.79 1027.49 1028.28 1028.99 1029.67 1030.19 1030.69 1031.03 1031.30 1031.74 1031.97 1032.13 1032.39 1032.58 1032.62 1032.40 1032.29 1032.25 1031.96 1031.82 1031.51 1031.31 1030.86 1030.24 1029.88 1029.50 1029.11 1029.00
1016.16 1016.49 1016.98 1017.16 1017.55 1017.62 1018.10 1018.64 1019.27 1019.99 1020.75 1021.62 1022.61 1023.52 1024.72 1025.90 1026.95 1027.65 1028.43 1029.08 1029.67 1030.28 1030.81 1031.25 1031.59 1031.99 1032.06 1032.19 1032.45 1032.66 1032.61 1032.44 1032.39 1032.21 1031.98 1031.68 1031.55 1031.43 1031.15 1030.72 1030.24 1029.98 1029.55 1029.31
1015.13 1015.46 1015.99 1016.48 1016.90 1017.40 1017.75 1018.35 1019.16 1019.97 1020.67 1021.65 1022.52 1023.61 1024.78 1026.13 1027.13 1027.95 1028.58 1029.12 1029.62 1030.36 1031.03 1031.56 1031.75 1032.03 1032.14 1032.21 1032.47 1032.66 1032.60 1032.40 1032.28 1032.07 1031.81 1031.62 1031.41 1031.39 1031.22 1031.22 1030.89 1030.62 1030.03 1029.51
1014.65 1014.98 1015.46 1016.11 1016.70 1017.21 1017.75 1018.33 1019.03 1019.83 1020.65 1021.69 1022.78 1023.92 1025.00 1026.09 1027.20 1028.04 1028.66 1029.20 1029.84 1030.67 1031.03 1031.43 1031.77 1031.99 1032.15 1032.19 1032.38 1032.49 1032.45 1032.34 1032.16 1031.99 1031.92 1031.88 1031.76 1031.72 1031.68 1031.64 1031.31 1030.93 1030.52 1030.06
1014.66 1015.05 1015.44 1016.00 1016.45 1016.95 1017.50 1018.12 1018.89 1019.73 1020.67 1021.69 1022.91 1024.08 1025.39 1026.70 1027.60 1028.30 1028.80 1029.26 1029.77 1030.31 1030.63 1030.96 1031.42 1031.82 1031.98 1031.98 1032.19 1032.16 1032.24 1032.22 1032.12 1032.11 1032.19 1032.16 1032.11 1032.17 1032.00 1031.93 1031.71 1031.48 1031.08 1030.60
1013.68 1014.14 1014.69 1015.23 1016.08 1016.85 1017.57 1018.08 1018.81 1019.77 1020.86 1021.81 1023.16 1024.56 1025.95 1026.98 1027.93 1028.62 1028.91 1029.33 1029.84 1030.28 1030.31 1030.46 1030.74 1031.27 1031.51 1031.50 1031.60 1031.76 1031.94 1032.10 1032.21 1032.35 1032.40 1032.42 1032.47 1032.35 1032.24 1032.19 1032.08 1031.98 1031.63 1031.27
1013.33 1013.74 1014.46 1015.14 1015.75 1016.58 1017.44 1018.38 1019.05 1020.01 1021.03 1022.26 1023.61 1024.89 1025.84 1026.79 1027.56 1028.32 1028.86 1029.27 1029.69 1030.01 1029.93 1030.05 1030.40 1030.68 1030.91 1031.09 1031.13 1031.43 1031.82 1032.06 1032.29 1032.43 1032.48 1032.55 1032.65 1032.61 1032.57 1032.53 1032.49 1032.37 1032.17 1031.98
1013.47 1013.68 1014.43 1015.21 1015.87 1016.63 1017.70 1018.63 1019.45 1020.70 1021.67 1022.64 1024.02 1025.43 1026.51 1027.08 1027.45 1028.09 1028.55 1028.99 1028.93 1029.09 1028.95 1029.37 1029.81 1030.07 1030.32 1030.72 1030.97 1031.30 1031.67 1031.99 1032.34 1032.57 1032.72 1032.84 1032.99 1033.06 1032.92 1032.88 1032.93 1032.83 1032.74 1032.61
1013.50 1013.94 1014.76 1015.50 1016.39 1017.08 1018.04 1018.90 1020.09 1021.40 1022.48 1023.00 1024.08 1025.15 1025.84 1026.65 1027.24 1027.72 1028.44 1028.61 1028.19 1028.29 1028.59 1028.90 1029.36 1029.67 1029.91 1030.46 1030.64 1031.11 1031.50 1031.96 1032.32 1032.63 1032.90 1033.17 1033.26 1033.29 1033.31 1033.34 1033.25 1033.20 1033.15 1033.00
1013.38 1014.33 1015.29 1015.98 1016.75 1017.90 1018.68 1019.20 1020.16 1021.57 1022.57 1023.37 1024.02 1024.84 1025.72 1026.56 1027.10 1027.41 1027.38 1027.53 1027.39 1027.55 1028.09 1028.66 1029.07 1029.37 1029.87 1030.28 1030.55 1031.03 1031.49 1031.93 1032.41 1032.77 1033.05 1033.26 1033.43 1033.68 1033.70 1033.67 1033.62 1033.51 1033.44 1033.33
1013.80 1014.82 1015.69 1016.38 1017.19 1018.18 1019.20 1019.83 1020.60 1021.26 1022.35 1023.16 1023.79 1024.34 1024.72 1025.20 1025.82 1026.72 1026.91 1026.69 1027.03 1027.34 1027.73 1028.32 1028.64 1029.20 1029.76 1029.85 1030.45 1030.93 1031.39 1031.84 1032.28 1032.69 1033.02 1033.24 1033.42 1033.57 1033.73 1033.85 1033.81 1033.83 1033.81 1033.65
1014.19 1015.06 1015.85 1016.66 1017.54 1018.47 1019.68 1020.59 1020.85 1021.29 1021.65 1022.35 1022.90 1023.43 1024.04 1024.92 1025.45 1025.40 1025.49 1025.64 1026.10 1026.83 1027.44 1028.03 1028.57 1028.95 1029.37 1029.86 1030.34 1030.81 1031.24 1031.67 1032.11 1032.50 1032.82 1033.16 1033.41 1033.62 1033.79 1033.85 1033.86 1034.00 1034.05 1033.71
1014.59 1015.34 1016.02 1016.75 1017.55 1018.47 1019.25 1020.24 1020.90 1021.49 1022.02 1022.59 1023.07 1023.51 1023.78 1024.01 1024.26 1024.62 1024.96 1025.28 1025.77 1026.52 1027.30 1027.98 1028.44 1028.92 1029.32 1029.86 1030.23 1030.59 1030.98 1031.48 1031.90 1032.27 1032.76 1033.09 1033.33 1033.53 1033.76 1033.91 1033.84 1033.93 1033.76 1033.68
1014.90 1015.62 1016.21 1016.70 1017.27 1018.18 1019.03 1019.84 1020.91 1021.53 1022.03 1022.53 1022.68 1023.10 1023.42 1023.70 1024.03 1024.27 1024.65 1025.14 1025.74 1026.40 1027.20 1028.07 1028.58 1028.94 1029.36 1029.66 1030.00 1030.14 1030.61 1031.29 1031.55 1031.89 1032.32 1032.66 1032.74 1033.07 1033.32 1033.24 1033.40 1033.47 1033.53 1033.49
1015.17 1015.75 1016.37 1016.97 1017.32 1017.92 1018.75 1019.67 1020.66 1021.14 1021.53 1022.04 1022.29 1022.59 1022.96 1023.36 1023.75 1024.20 1024.70 1025.32 1025.86 1026.47 1027.15 1027.83 1028.18 1028.56 1029.11 1029.34 1029.36 1029.54 1029.98 1030.75 1030.98 1031.16 1031.63 1032.10 1032.32 1032.57 1032.82 1032.94 1033.11 1033.17 1033.16 1033.09
Wind_Speed
4 1 6 7 8 12 7 7 7 6 6 6 7 9 10 11 11 8 5 7 6 6 6 6 6 6 6 7 5 5 5 6 6 6 7 9 9 11 11 11 10 10 11 10
3 7 6 6 12 16 15 9 9 6 16 9 8 9 9 10 7 6 7 7 7 7 6 6 6 5 6 7 5 5 6 5 6 7 9 9 13 12 11 13 11 10 9 10
3 5 5 8 11 13 11 8 14 10 11 5 6 8 9 6 7 7 7 7 6 6 5 5 5 5 7 6 5 6 7 5 5 6 8 10 12 12 12 12 11 11 10 11
3 4 1 10 6 8 15 12 12 6 9 11 9 10 4 7 8 8 7 7 6 5 4 5 4 6 6 6 6 6 7 6 5 7 7 9 12 11 11 11 11 11 12 13
5 3 6 6 7 6 7 7 9 12 10 11 11 7 5 8 8 7 8 6 5 4 4 5 6 5 6 6 6 6 8 6 6 7 7 8 11 11 9 10 10 11 12 14
1 4 7 7 6 8 7 6 7 5 6 9 7 4 4 7 8 7 7 7 5 6 5 7 4 6 6 6 6 6 6 7 6 6 6 9 10 10 9 9 10 10 11 11
1 1 8 7 8 8 7 9 4 5 6 7 4 6 7 9 7 5 7 7 6 7 6 5 6 6 6 6 6 6 7 7 6 5 6 7 9 8 8 9 9 9 11 11
3 2 11 6 6 8 9 3 6 6 6 8 12 10 9 9 8 7 7 7 7 6 5 5 6 6 5 6 5 6 8 6 5 5 6 7 9 7 8 8 6 8 10 10
10 9 8 8 6 7 5 6 5 7 6 8 9 8 9 8 8 6 7 7 6 5 6 5 5 5 6 4 5 6 7 6 7 8 8 7 9 6 6 6 7 7 8 9
5 8 8 8 5 9 7 5 6 6 7 8 8 8 8 8 7 6 7 6 6 6 6 4 5 5 5 6 5 6 7 8 8 8 7 8 7 6 6 6 6 7 7 9
5 7 2 9 10 10 10 8 7 8 8 9 9 8 8 8 8 7 7 6 6 5 5 5 5 6 6 6 7 7 7 8 7 5 5 6 6 7 7 7 8 6 6 8
8 9 8 6 10 10 10 10 10 9 8 8 9 9 7 8 7 7 7 6 6 6 6 5 6 6 7 8 8 6 5 5 4 4 4 4 4 3 8 12 16 12 12 12
7 6 9 8 8 10 10 9 9 10 9 9 7 8 9 10 7 9 8 7 7 6 6 6 5 6 6 6 6 4 4 4 4 4 4 4 3 3 5 6 10 12 13 18
12 7 4 7 6 8 7 9 10 10 10 9 9 10 9 10 9 8 7 7 7 7 6 5 5 5 4 5 5 3 3 4 4 4 3 4 3 3 2 3 5 6 8 14
11 12 10 9 8 9 7 5 8 8 8 8 10 13 13 12 9 8 8 8 7 7 6 4 5 4 5 3 3 2 3 2 3 4 4 4 2 3 3 3 4 3 5 6
6 8 9 11 10 9 9 7 7 8 9 8 13 12 11 10 9 9 8 7 7 5 6 5 5 6 5 3 1 1 3 6 4 3 2 3 4 4 4 4 4 3 5 6
7 7 7 7 9 9 9 8 8 7 9 13 13 13 13 11 9 8 7 7 7 7 7 6 6 6 5 4 4 3 2 3 4 3 3 3 3 4 3 3 4 4 5 5
9 10 10 9 9 8 6 8 9 9 10 13 14 13 12 12 10 8 7 7 6 4 6 5 7 7 6 4 4 2 0 1 2 2 2 3 3 3 3 3 4 4 4 6
8 9 9 9 9 9 8 8 8 9 10 13 14 13 11 9 9 7 7 7 6 6 6 7 8 7 6 6 4 3 2 3 2 2 2 3 3 3 3 3 3 4 4 5
7 8 8 8 9 8 8 7 9 9 8 10 11 11 9 7 8 8 7 7 7 5 6 8 8 6 6 7 5 4 4 4 3 2 2 2 2 2 3 4 4 4 4 4
10 9 9 9 8 8 10 10 11 10 7 11 13 12 12 8 7 7 6 5 7 7 8 10 6 4 5 5 4 4 4 4 3 3 2 2 3 3 3 3 3 3 3 3
7 8 9 10 10 8 8 9 12 10 9 8 7 9 9 8 7 7 5 5 4 8 7 6 5 7 6 6 5 4 5 4 3 3 2 2 2 1 2 2 3 2 2 3
7 10 10 10 12 11 8 9 9 13 11 9 11 11 10 8 8 7 6 8 5 6 6 5 7 10 8 4 5 5 5 4 3 3 3 3 2 2 1 1 1 2 3 3
11 11 10 10 12 11 9 5 7 8 9 9 9 8 9 5 3 5 4 6 9 10 6 6 9 10 8 5 5 5 4 4 4 3 3 3 2 2 2 2 1 1 2 3
10 10 11 12 10 6 8 8 6 7 6 6 6 6 6 4 5 5 4 4 8 9 5 8 10 9 5 5 5 4 3 3 4 4 3 3 3 2 2 2 1 0 1 1
10 7 7 9 8 7 6 7 5 5 5 5 5 5 5 4 4 3 4 6 7 8 6 6 5 5 4 5 5 4 4 3 4 4 4 3 3 3 3 3 1 1 1 1
6 7 5 5 5 6 6 6 6 6 7 6 5 5 5 5 5 5 6 5 5 7 6 6 5 5 4 4 4 4 4 3 5 4 4 4 3 3 4 4 3 2 2 2
Wind_Direction
284 294 139 173 175 177 174 198 163 244 219 237 224 224 236 243 256 261 90 75 68 63 51 43 37 22 7 339 27 2 8 359 351 17 32 18 3 353 346 344 339 330 336 339
260 259 213 208 204 182 200 209 242 254 280 212 239 219 245 247 252 96 87 77 68 66 55 42 39 17 1 336 20 7 352 0 3 30 28 11 2 350 348 342 343 342 346 349
242 127 51 327 221 210 193 184 196 209 221 197 228 240 235 233 109 98 88 77 75 74 61 56 44 28 350 351 16 2 342 355 38 38 25 11 0 350 351 345 343 348 350 356
196 79 5 238 174 193 216 227 189 171 172 180 211 234 196 107 115 99 89 84 76 80 70 68 48 25 350 19 13 353 343 343 53 39 27 9 359 351 350 350 350 351 352 356
141 204 278 287 198 179 174 272 202 204 198 194 218 121 61 114 109 112 109 119 104 104 107 83 54 25 13 24 8 356 344 354 56 40 27 12 2 352 350 355 357 356 358 355
101 182 215 232 141 105 79 310 255 201 205 169 140 118 216 125 110 105 117 118 109 103 98 78 53 36 29 26 5 349 357 1 63 39 27 19 356 352 350 356 360 357 354 351
191 255 288 250 134 107 91 229 39 136 142 123 125 166 167 136 130 145 121 127 106 103 104 108 74 48 31 23 5 1 354 359 65 32 32 10 1 357 358 1 2 357 355 355
156 150 274 204 91 149 211 166 115 100 120 106 129 138 143 139 139 122 118 123 102 101 102 100 80 64 34 24 14 17 340 12 67 39 28 14 13 352 2 359 351 354 359 359
177 210 232 179 164 197 142 148 141 141 146 131 137 152 152 141 126 129 119 107 96 88 99 92 81 80 56 25 38 11 345 41 33 41 18 13 2 359 3 347 350 351 2 0
124 239 224 208 207 175 190 175 161 143 147 139 156 148 145 140 135 115 114 107 94 86 84 93 75 72 80 48 27 25 6 34 24 35 15 4 357 359 358 358 354 354 2 3
252 257 197 211 197 174 179 184 159 165 154 160 150 152 148 139 135 125 117 115 114 112 97 88 75 77 63 47 38 33 34 23 27 23 354 3 350 348 354 358 358 5 17 4
217 210 171 209 201 183 172 177 173 156 154 155 154 160 138 139 135 130 124 116 106 103 97 83 68 78 64 52 59 48 27 15 2 336 346 339 336 324 341 356 355 27 39 25
208 206 182 195 151 174 173 181 178 165 160 166 165 137 130 136 126 124 122 132 127 122 109 89 72 85 70 77 69 46 11 343 343 340 326 316 322 335 351 346 352 349 31 23
194 185 158 155 171 159 163 184 171 165 169 162 151 131 125 128 128 130 137 130 126 118 116 106 96 99 91 92 92 50 336 327 331 312 298 292 288 302 325 332 346 355 9 12
189 187 169 179 158 168 172 165 166 164 154 137 135 134 129 135 135 133 132 124 129 137 139 138 139 126 105 92 125 282 321 295 308 298 303 312 327 308 318 339 348 328 351 349
222 179 166 159 177 166 161 174 157 169 144 133 134 136 134 132 124 130 132 144 139 156 178 159 168 164 147 141 228 295 267 279 297 310 341 13 359 7 356 3 356 354 351 349
186 207 164 172 171 176 174 171 173 164 142 139 139 130 121 125 122 132 140 140 140 158 168 169 183 171 171 189 209 245 246 267 357 36 40 4 10 9 356 14 357 353 343 356
197 186 185 172 172 168 165 171 158 147 149 144 131 129 132 140 154 165 165 156 144 153 181 177 162 165 188 204 200 195 357 107 57 62 45 20 12 6 4 13 6 4 340 4
183 152 167 166 159 157 154 160 150 140 132 130 135 149 150 148 154 164 159 144 158 180 228 186 171 173 178 178 160 129 126 95 65 45 60 37 27 2 7 12 5 4 357 5
186 157 154 155 144 141 142 129 119 115 128 123 115 124 137 157 149 156 157 182 192 198 180 160 167 189 187 179 163 129 138 119 112 86 60 43 32 7 4 29 17 9 12 5
173 152 152 142 133 126 125 130 122 130 135 135 140 158 164 157 160 160 161 196 222 201 166 165 170 184 139 162 156 145 133 113 110 109 102 89 33 16 19 26 12 11 6 2
145 128 129 128 121 111 127 125 120 124 131 122 117 132 140 161 169 195 207 189 221 192 161 165 167 148 155 144 130 123 120 118 118 111 102 99 74 49 6 34 18 353 2 350
112 126 127 125 128 129 113 120 137 144 150 156 159 165 172 175 172 168 213 220 193 171 155 165 159 150 151 133 135 131 130 132 145 145 147 147 154 144 107 83 25 42 0 347
124 131 129 123 121 121 126 163 156 162 164 171 176 172 158 157 207 212 208 173 170 172 169 155 156 151 146 138 138 141 147 157 155 152 152 152 149 127 95 117 53 359 356 13
129 134 133 136 138 145 134 154 145 155 159 160 160 173 188 192 165 200 175 162 153 147 138 153 153 150 140 147 148 155 161 163 164 149 150 161 172 160 161 142 136 295 22 8
138 145 151 148 153 146 150 153 160 163 152 167 178 176 187 190 186 149 136 142 143 136 139 149 155 149 149 154 159 165 165 159 160 168 170 173 177 172 171 168 165 151 181 251
126 134 134 130 146 143 147 153 152 175 179 181 176 175 168 168 151 134 130 128 131 149 157 161 153 151 155 170 180 177 171 174 180 173 174 179 175 181 175 173 174 188 222 243